Location: Florence
(33.9745°N, 118.2481°W)
Time: 19:19:14
(UTC+00:00)

CZ-2D R/B - Pass Details

Date: 23 March 2023
Orbit: 546 x 628 km, 98.0° (Epoch: 05 June)

Event Time Altitude Azimuth Distance (km) Brightness Sun altitude
Rises 12:20:57 0° 10° (N) 2,893 7.3 -19.6°
Reaches altitude 10° 12:23:10 10° 9° (N) 1,973 6.4 -19.2°
Maximum altitude 12:27:27 79° 284° (WNW) 616 3.4 -18.3°
Enters shadow 12:30:39 17° 198° (SSW) 1,528 5.3 -17.7°
